Showing default

PELICAN-3 300A, 65315

Orbit data source: Space-Track

PELICAN-3 300A, 65315 is a payload satellite owned by Planet (US) in SSO that was launched on Tue, 26 Aug 2025 UTC via an FALCON 9 launch vehicle from the Air Force Western Test Range (AFWTR). Payload-class satellites include a variety of spacecraft equipped with specific instruments for various scientific and technological missions. These include communications satellites like Starlink; space stations such as the ISS; scientific satellites like the Hubble; Earth observation satellites from companies like Planet Labs, Umbra, and HawkEye 360; GPS; miniature CubeSats for education and research; and military/defense satellites.

Loading next visibility...
Identifier
65315, 2025-188A
Orbit
SSO
Country
Flag of USUS
Related business
Manufacturer
Planet
Mission
Operational Commercial Imaging
Bus & Motor
PELICAN, XE AOCS
Mass
160 kg wet, 146 kg dry
Launch date (UTC)
2025-08-26 (10 months ago)
Launch vehicle
FALCON 9
Launch site
Air Force Western Test Range (AFWTR)
Object type
Payload
Rocket body
Debris
Shape & HBR
Box + 2 Pan, 1.0 m
Radar Cross Section
1.955 m², Large (>1 m²)

Expand to show TLE details & history
Last TLE update: 1 day ago

TLE from 1 day ago
0 PELICAN-3 300A
1 65315U 25188A   26170.77456122  .00000532  00000-0  14988-4 0  9998
2 65315  97.1980 246.8856 0001705  91.8248 268.3194 15.40724259 45719
Epoch: 2026-06-19T18:35Z
TLE epoch observation values (Epoch: 2026-06-19T18:35:22.089Z)
Latitude
-0.00004°
Longitude
60.04486°
Altitude
447.129 km
Speed
7.644 km/s
True Right ascension
16h 27m 32s
True Declination
0° 00' 00"
Sunlit
Object was in full shadow at epoch
Visualization orbit readout
Latitude
Unknown
Longitude
Unknown
Altitude
Unknown
Speed
Unknown
Apparent Right ascension
Unknown
Apparent Declination
Unknown
Sunlit
N/A
Visualization observer readout
Local Sidereal Time
08:41:40
Azimuth
Unknown
Elevation
Unknown
Doppler factor
Unknown
Orbital elements
Apogee altitude
442.063 km
Perigee altitude
439.737 km
Semi-major axis
6,819.037 km
Eccentricity
0.00017
Inclination
97.198°
RAAN
246.8856°
Arg. of periapsis
91.8248°
True anomaly
268.29987°
Mean anomaly
268.3194°
Eccentric anomaly
268.30964°
Mean motion
3.85442 °/min
Orbital period
93.4 mins
BSTAR
0.000014988
Loading maneuver chart data...
Computing Atmospheric mass density...
Loading historical data...
Loading historical data...
Loading historical data...
Loading historical data...
Loading historical data...
Loading historical data...
Loading historical data...

Documentation

Showing up to 5 results
|